28/02/2012,00:00:09,   0.0,  0.0,  201,+11.4,  91.8,    1.4,   +8.6, +106.4,  +39.1,+1100.00,2D
28/02/2012,00:00:27,   0.0,  0.0,  198,+11.4,  91.9,    1.5,   +8.6, +106.1,  +39.2,+1100.00,3C
28/02/2012,00:00:45,   0.0,  0.0,  205,+11.3,  91.9,    1.5,   +8.7, +106.0,  +39.1,+1100.00,2F
28/02/2012,00:01:03,   0.0,  0.0,  183,+11.4,  91.9,    1.5,   +8.6, +106.0,  +39.0,+1100.00,2E
28/02/2012,00:01:29,   0.0,  0.0,  196,+11.4,  91.9,    1.4,   +8.7, +106.1,  +39.2,+1100.00,3D
28/02/2012,00:01:47,   0.0,  0.0,  198,+11.3,  91.9,    1.5,   +8.6, +106.2,  +39.3,+1100.00,40
28/02/2012,00:02:05,   0.0,  0.0,  213,+11.4,  91.9,    1.4,   +8.6, +106.3,  +39.1,+1100.00,2E
28/02/2012,00:02:22,   0.0,  0.0,  208,+11.4,  91.9,    1.3,   +8.7, +106.0,  +39.1,+1100.00,2E
28/02/2012,00:02:48,   0.0,  0.0,  220,+11.4,  91.9,    1.4,   +8.5, +105.8,  +39.0,+1100.00,35
28/02/2012,00:03:06,   0.0,  0.0,  202,+11.3,  91.9,    1.3,   +8.6, +106.1,  +39.1,+1100.00,2A
28/02/2012,00:03:24,   0.0,  0.0,  196,+11.3,  91.9,    1.4,   +8.6, +106.4,  +38.9,+1100.00,41
28/02/2012,00:03:42,   0.0,  0.0,  202,+11.3,  92.0,    1.4,   +8.7, +105.9,  +39.0,+1100.00,2A
28/02/2012,00:04:08,   0.0,  0.0,  214,+11.3,  91.9,    1.4,   +8.6, +106.3,  +39.3,+1100.00,35
28/02/2012,00:04:26,   0.0,  0.0,  210,+11.3,  92.0,    1.3,   +8.5, +105.9,  +38.9,+1100.00,31
28/02/2012,00:04:44,   0.0,  0.0,  223,+11.3,  92.0,    1.4,   +8.7, +105.8,  +39.1,+1100.00,30
28/02/2012,00:05:02,   0.0,  0.0,  201,+11.3,  92.0,    1.4,   +8.7, +105.9,  +39.3,+1100.00,2A
28/02/2012,00:05:28,   0.0,  0.0,  209,+11.3,  92.0,    1.4,   +8.6, +106.5,  +39.2,+1100.00,35
28/02/2012,00:05:46,   0.0,  0.0,  197,+11.3,  92.0,    1.4,   +8.7, +106.2,  +39.5,+1100.00,3C
28/02/2012,00:06:04,   0.0,  0.0,  189,+11.3,  92.0,    1.4,   +8.7, +106.4,  +39.3,+1100.00,38
28/02/2012,00:06:22,   0.0,  0.0,  204,+11.3,  92.0,    1.5,   +8.7, +106.3,  +39.0,+1100.00,29
28/02/2012,00:06:48,   0.0,  0.0,  208,+11.3,  92.0,    1.3,   +8.6, +106.8,  +39.4,+1100.00,3B
28/02/2012,00:07:06,   0.0,  0.0,  204,+11.3,  92.0,    1.5,   +8.6, +106.4,  +39.4,+1100.00,30
28/02/2012,00:07:24,   0.0,  0.0,  181,+11.3,  92.0,    1.6,   +8.6, +106.2,  +39.2,+1100.00,31
28/02/2012,00:07:42,   0.0,  0.0,  182,+11.3,  92.1,    1.5,   +8.7, +105.9,  +39.2,+1100.00,39
28/02/2012,00:08:08,   0.0,  0.0,  277,+11.3,  92.1,    1.5,   +8.7, +106.4,  +39.0,+1100.00,3B
28/02/2012,00:08:26,   0.0,  0.0,  207,+11.3,  92.1,    1.4,   +8.6, +106.2,  +39.2,+1100.00,32
28/02/2012,00:08:44,   0.0,  0.0,  197,+11.3,  92.0,    1.7,   +8.7, +105.6,  +39.4,+1100.00,42
28/02/2012,00:09:02,   0.0,  0.0,  208,+11.3,  92.1,    1.5,   +8.6, +105.4,  +39.1,+1100.00,2F
28/02/2012,00:09:28,   0.0,  0.0,  215,+11.3,  92.0,    1.5,   +8.6, +105.8,  +39.0,+1100.00,37
28/02/2012,00:09:46,   0.0,  0.0,  221,+11.3,  92.0,    1.5,   +8.6, +105.9,  +39.1,+1100.00,36
28/02/2012,00:10:04,   0.0,  0.0,  203,+11.3,  92.0,    1.6,   +8.6, +105.7,  +39.1,+1100.00,27
28/02/2012,00:10:22,   0.0,  0.0,  207,+11.3,  92.1,    1.6,   +8.6, +106.0,  +39.1,+1100.00,26
28/02/2012,00:10:48,   0.0,  0.0,  203,+11.3,  92.1,    1.3,   +8.6, +105.8,  +39.3,+1100.00,30
28/02/2012,00:11:06,   0.0,  0.0,  216,+11.3,  92.1,    1.4,   +8.7, +106.0,  +39.2,+1100.00,29
28/02/2012,00:11:24,   0.0,  0.0,  228,+11.3,  92.1,    1.5,   +8.7, +105.8,  +38.9,+1100.00,3A
28/02/2012,00:11:42,   0.0,  0.0,  208,+11.3,  92.1,    1.4,   +8.7, +105.9,  +39.5,+1100.00,35
28/02/2012,00:12:08,   0.0,  0.0,  251,+11.3,  92.1,    1.2,   +8.7, +106.3,  +39.2,+1100.00,2C
28/02/2012,00:12:26,   0.0,  0.0,  231,+11.3,  92.1,    1.5,   +8.7, +106.4,  +39.5,+1100.00,31
28/02/2012,00:12:43,   0.0,  0.0,  268,+11.3,  92.1,    1.4,   +8.6, +106.3,  +39.3,+1100.00,35
28/02/2012,00:13:09,   0.0,  0.0,  244,+11.3,  92.2,    1.5,   +8.7, +106.5,  +39.4,+1100.00,38
28/02/2012,00:13:27,   0.0,  0.0,  218,+11.3,  92.1,    1.5,   +8.6, +106.2,  +39.5,+1100.00,35
28/02/2012,00:13:45,   0.0,  0.0,  263,+11.3,  92.2,    1.7,   +8.6, +106.1,  +39.4,+1100.00,36
28/02/2012,00:14:03,   0.0,  0.0,  248,+11.3,  92.2,    1.4,   +8.6, +105.9,  +39.2,+1100.00,36
28/02/2012,00:14:29,   0.0,  0.0,  207,+11.3,  92.2,    1.5,   +8.6, +106.2,  +39.5,+1100.00,37
28/02/2012,00:14:47,   0.0,  0.0,  265,+11.3,  92.2,    1.5,   +8.6, +106.1,  +39.4,+1100.00,39
28/02/2012,00:15:05,   0.0,  0.0,  236,+11.3,  92.2,    1.6,   +8.6, +106.4,  +39.3,+1100.00,35
28/02/2012,00:15:23,   0.0,  0.0,  233,+11.3,  92.2,    1.5,   +8.6, +106.4,  +39.4,+1100.00,32
28/02/2012,00:15:49,   0.0,  0.0,  230,+11.3,  92.2,    1.5,   +8.5, +106.1,  +39.3,+1100.00,32
28/02/2012,00:16:07,   0.0,  0.0,  263,+11.3,  92.2,    1.3,   +8.7, +106.2,  +39.3,+1100.00,34
28/02/2012,00:16:25,   0.0,  0.0,  225,+11.3,  92.2,    1.4,   +8.6, +106.4,  +39.0,+1100.00,31
28/02/2012,00:16:43,   0.0,  0.0,  226,+11.3,  92.2,    1.7,   +8.7, +106.0,  +39.2,+1100.00,34
28/02/2012,00:17:09,   0.0,  0.0,  229,+11.3,  92.2,    1.5,   +8.6, +106.8,  +39.4,+1100.00,41
28/02/2012,00:17:27,   0.0,  0.0,  247,+11.3,  92.3,    1.4,   +8.6, +106.3,  +39.5,+1100.00,3D
28/02/2012,00:17:44,   0.0,  0.0,  258,+11.3,  92.2,    1.4,   +8.6, +106.2,  +39.2,+1100.00,39
28/02/2012,00:18:02,   0.0,  0.0,  199,+11.3,  92.2,    1.4,   +8.7, +106.4,  +39.3,+1100.00,3C
28/02/2012,00:18:28,   0.0,  0.0,  213,+11.3,  92.2,    1.3,   +8.6, +106.8,  +39.4,+1100.00,3A
28/02/2012,00:18:46,   0.0,  0.0,  240,+11.3,  92.2,    1.5,   +8.6, +106.7,  +39.5,+1100.00,3C
28/02/2012,00:19:03,   0.0,  0.0,  193,+11.3,  92.2,    1.4,   +8.6, +106.4,  +39.7,+1100.00,3B
28/02/2012,00:19:29,   0.0,  0.0,  195,+11.3,  92.2,    1.4,   +8.6, +107.1,  +39.5,+1100.00,41
28/02/2012,00:19:47,   0.0,  0.0,  204,+11.3,  92.3,    1.4,   +8.8, +106.6,  +39.4,+1100.00,3E
28/02/2012,00:20:05,   0.0,  0.0,  156,+11.3,  92.2,    1.6,   +8.6, +106.8,  +39.3,+1100.00,36
28/02/2012,00:20:23,   0.0,  0.0,  203,+11.3,  92.2,    1.6,   +8.6, +106.9,  +39.2,+1100.00,2F
28/02/2012,00:20:49,   0.0,  0.0,  207,+11.2,  92.3,    1.4,   +8.6, +107.1,  +39.4,+1100.00,34
28/02/2012,00:21:07,   0.0,  0.0,  196,+11.3,  92.2,    1.7,   +8.7, +106.8,  +39.5,+1100.00,41
28/02/2012,00:21:25,   0.0,  0.0,  191,+11.3,  92.3,    1.6,   +8.6, +106.9,  +39.4,+1100.00,3B
28/02/2012,00:21:43,   0.0,  0.0,  242,+11.3,  92.3,    1.8,   +8.7, +106.1,  +39.2,+1100.00,31
28/02/2012,00:22:09,   0.0,  0.0,  199,+11.3,  92.3,    1.4,   +8.7, +106.3,  +39.3,+1100.00,3E
28/02/2012,00:22:27,   0.0,  0.0,  174,+11.3,  92.3,    1.8,   +8.7, +106.3,  +39.4,+1100.00,3C
28/02/2012,00:22:44,   0.0,  0.0,  201,+11.3,  92.3,    1.3,   +8.7, +106.4,  +39.3,+1100.00,2D
28/02/2012,00:23:02,   0.0,  0.0,  205,+11.3,  92.4,    1.4,   +8.6, +107.0,  +39.4,+1100.00,2B
28/02/2012,00:23:28,   0.0,  0.0,  210,+11.3,  92.3,    1.4,   +8.7, +106.1,  +39.2,+1100.00,2D
28/02/2012,00:23:46,   0.0,  0.0,  214,+11.3,  92.3,    1.4,   +8.7, +106.5,  +39.1,+1100.00,34
28/02/2012,00:24:03,   0.0,  0.0,  195,+11.3,  92.3,    1.4,   +8.6, +106.7,  +39.3,+1100.00,39
28/02/2012,00:24:29,   0.0,  0.0,  202,+11.3,  92.4,    1.4,   +8.7, +106.9,  +39.4,+1100.00,3B
28/02/2012,00:24:47,   0.0,  0.0,  220,+11.3,  92.4,    1.4,   +8.7, +106.3,  +39.5,+1100.00,36
28/02/2012,00:25:05,   0.0,  0.0,  179,+11.3,  92.4,    1.7,   +8.6, +106.8,  +39.4,+1100.00,44
28/02/2012,00:25:23,   0.0,  0.0,  188,+11.3,  92.4,    1.5,   +8.7, +106.8,  +39.5,+1100.00,44
28/02/2012,00:25:49,   0.0,  0.0,  206,+11.3,  92.4,    1.5,   +8.6, +107.0,  +39.4,+1100.00,3A
28/02/2012,00:26:07,   0.0,  0.0,  220,+11.3,  92.4,    1.5,   +8.7, +106.5,  +39.3,+1100.00,35
28/02/2012,00:26:25,   0.0,  0.0,  250,+11.3,  92.4,    1.5,   +8.7, +106.7,  +39.3,+1100.00,3A
28/02/2012,00:26:43,   0.0,  0.0,  227,+11.3,  92.4,    1.6,   +8.6, +106.6,  +39.5,+1100.00,3F
28/02/2012,00:27:09,   0.0,  0.0,  210,+11.3,  92.4,    1.5,   +8.7, +106.9,  +39.5,+1100.00,3D
28/02/2012,00:27:27,   0.0,  0.0,  212,+11.3,  92.4,    1.6,   +8.6, +106.2,  +39.5,+1100.00,38
28/02/2012,00:27:44,   0.0,  0.0,  194,+11.3,  92.4,    1.4,   +8.6, +106.3,  +39.2,+1100.00,3C
28/02/2012,00:28:02,   0.0,  0.0,  223,+11.3,  92.4,    1.4,   +8.6, +106.4,  +38.9,+1100.00,37
28/02/2012,00:28:28,   0.0,  0.0,  241,+11.3,  92.4,    1.4,   +8.6, +106.2,  +39.1,+1100.00,36
28/02/2012,00:28:46,   0.0,  0.0,  173,+11.3,  92.4,    1.6,   +8.7, +106.4,  +39.3,+1100.00,41
28/02/2012,00:29:04,   0.0,  0.0,  211,+11.3,  92.4,    1.5,   +8.6, +106.1,  +39.2,+1100.00,2F
28/02/2012,00:29:29,   0.0,  0.0,  253,+11.3,  92.5,    1.4,   +8.7, +106.1,  +39.3,+1100.00,3E
28/02/2012,00:29:47,   0.0,  0.0,  207,+11.3,  92.4,    1.3,   +8.6, +105.9,  +39.3,+1100.00,41
28/02/2012,00:30:05,   0.0,  0.0,  249,+11.3,  92.4,    1.4,   +8.7, +106.4,  +39.1,+1100.00,35
28/02/2012,00:30:23,   0.0,  0.0,  238,+11.3,  92.4,    1.7,   +8.6, +106.5,  +39.1,+1100.00,36
28/02/2012,00:30:49,   0.0,  0.0,  207,+11.3,  92.4,    1.5,   +8.7, +106.0,  +39.2,+1100.00,35
28/02/2012,00:31:07,   0.0,  0.0,  206,+11.3,  92.4,    1.4,   +8.7, +106.2,  +39.4,+1100.00,32
28/02/2012,00:31:25,   0.0,  0.0,  233,+11.3,  92.4,    1.5,   +8.6, +106.4,  +39.2,+1100.00,32
28/02/2012,00:31:43,   0.0,  0.0,  252,+11.3,  92.4,    1.6,   +8.7, +106.1,  +39.3,+1100.00,33
28/02/2012,00:32:09,   0.0,  0.0,  216,+11.3,  92.4,    1.5,   +8.7, +106.5,  +39.1,+1100.00,37
28/02/2012,00:32:27,   0.0,  0.0,  212,+11.2,  92.4,    1.4,   +8.8, +106.4,  +38.9,+1100.00,38
28/02/2012,00:32:44,   0.0,  0.0,  204,+11.3,  92.5,    1.5,   +8.8, +106.8,  +39.1,+1100.00,38
28/02/2012,00:33:02,   0.0,  0.0,  189,+11.3,  92.4,    1.5,   +8.6, +106.5,  +39.2,+1100.00,3A
28/02/2012,00:33:28,   0.0,  0.0,  191,+11.3,  92.5,    1.5,   +8.7, +106.4,  +38.9,+1100.00,42
28/02/2012,00:33:46,   0.0,  0.0,  196,+11.3,  92.5,    1.7,   +8.8, +106.7,  +39.2,+1100.00,47
28/02/2012,00:34:03,   0.0,  0.0,  202,+11.3,  92.5,    1.5,   +8.6, +106.8,  +39.0,+1100.00,30
28/02/2012,00:34:29,   0.0,  0.0,  204,+11.3,  92.4,    1.5,   +8.6, +106.6,  +39.0,+1100.00,37
28/02/2012,00:34:47,   0.0,  0.0,  228,+11.3,  92.5,    1.3,   +8.7, +106.5,  +39.0,+1100.00,3C
28/02/2012,00:35:05,   0.0,  0.0,  224,+11.3,  92.5,    1.5,   +8.7, +106.2,  +39.0,+1100.00,32
28/02/2012,00:35:23,   0.0,  0.0,  231,+11.3,  92.5,    1.7,   +8.7, +105.8,  +39.3,+1100.00,3A
28/02/2012,00:35:49,   0.0,  0.0,  208,+11.3,  92.5,    1.5,   +8.7, +106.3,  +39.3,+1100.00,40
28/02/2012,00:36:07,   0.0,  0.0,  219,+11.3,  92.5,    1.4,   +8.7, +106.3,  +39.1,+1100.00,3A
28/02/2012,00:36:25,   0.0,  0.0,  218,+11.3,  92.5,    1.5,   +8.7, +106.4,  +39.3,+1100.00,3D
28/02/2012,00:36:43,   0.0,  0.0,  196,+11.3,  92.5,    1.6,   +8.7, +106.0,  +39.0,+1100.00,3C
28/02/2012,00:37:09,   0.0,  0.0,  204,+11.3,  92.5,    1.5,   +8.6, +106.3,  +39.1,+1100.00,37
28/02/2012,00:37:27,   0.0,  0.0,  214,+11.2,  92.5,    1.5,   +8.7, +106.3,  +38.9,+1100.00,3F
28/02/2012,00:37:44,   0.0,  0.0,  214,+11.3,  92.5,    1.5,   +8.7, +106.1,  +39.1,+1100.00,36
28/02/2012,00:38:02,   0.0,  0.0,  196,+11.3,  92.6,    1.5,   +8.7, +106.0,  +39.1,+1100.00,3A
28/02/2012,00:38:28,   0.0,  0.0,  229,+11.3,  92.6,    1.3,   +8.7, +106.5,  +39.4,+1100.00,45
28/02/2012,00:38:46,   0.0,  0.0,  212,+11.2,  92.6,    1.7,   +8.7, +106.5,  +39.2,+1100.00,3E
28/02/2012,00:39:04,   0.0,  0.0,  209,+11.2,  92.6,    1.4,   +8.7, +106.3,  +39.1,+1100.00,39
28/02/2012,00:39:29,   0.0,  0.0,  217,+11.3,  92.6,    1.5,   +8.7, +106.9,  +39.2,+1100.00,48
28/02/2012,00:39:47,   0.0,  0.0,  202,+11.3,  92.6,    1.6,   +8.7, +106.5,  +39.0,+1100.00,3D
28/02/2012,00:40:05,   0.0,  0.0,  251,+11.3,  92.6,    1.6,   +8.7, +106.5,  +39.2,+1100.00,35
28/02/2012,00:40:23,   0.0,  0.0,  252,+11.2,  92.7,    1.5,   +8.7, +106.5,  +39.2,+1100.00,35
28/02/2012,00:40:49,   0.0,  0.0,  224,+11.3,  92.7,    1.4,   +8.7, +106.3,  +39.0,+1100.00,38
28/02/2012,00:41:07,   0.0,  0.0,  194,+11.2,  92.7,    1.4,   +8.7, +106.4,  +39.2,+1100.00,3B
28/02/2012,00:41:25,   0.0,  0.0,  219,+11.3,  92.7,    1.3,   +8.7, +107.1,  +39.1,+1100.00,36
28/02/2012,00:41:43,   0.0,  0.0,  231,+11.2,  92.7,    1.4,   +8.7, +106.5,  +39.2,+1100.00,34
28/02/2012,00:42:09,   0.0,  0.0,  211,+11.2,  92.8,    1.6,   +8.7, +106.6,  +39.4,+1100.00,3B
28/02/2012,00:42:27,   0.0,  0.0,  250,+11.2,  92.7,    1.7,   +8.6, +106.5,  +39.4,+1100.00,3C
28/02/2012,00:42:44,   0.0,  0.0,  238,+11.3,  92.8,    1.4,   +8.7, +106.5,  +39.2,+1100.00,3F
28/02/2012,00:43:02,   0.0,  0.0,  211,+11.2,  92.8,    1.5,   +8.7, +106.5,  +39.4,+1100.00,33
28/02/2012,00:43:28,   0.0,  0.0,  220,+11.3,  92.8,    1.6,   +8.7, +107.0,  +39.4,+1100.00,39
28/02/2012,00:43:46,   0.0,  0.0,  212,+11.3,  92.8,    1.6,   +8.7, +106.7,  +39.3,+1100.00,3F
28/02/2012,00:44:03,   0.0,  0.0,  208,+11.3,  92.7,    1.4,   +8.8, +106.5,  +39.5,+1100.00,3C
28/02/2012,00:44:29,   0.0,  0.0,  207,+11.3,  92.8,    1.4,   +8.7, +106.5,  +39.4,+1100.00,42
28/02/2012,00:44:47,   0.0,  0.0,  200,+11.2,  92.8,    1.5,   +8.6, +106.5,  +39.2,+1100.00,38
28/02/2012,00:45:05,   0.0,  0.0,  206,+11.2,  92.8,    1.7,   +8.6, +105.8,  +39.2,+1100.00,3D
28/02/2012,00:45:23,   0.0,  0.0,  247,+11.3,  92.8,    1.5,   +8.7, +106.2,  +39.3,+1100.00,3E
28/02/2012,00:45:49,   0.0,  0.0,  217,+11.2,  92.8,    1.4,   +8.6, +106.6,  +39.2,+1100.00,43
28/02/2012,00:46:07,   0.0,  0.0,  211,+11.3,  92.8,    1.5,   +8.7, +106.2,  +39.3,+1100.00,38
28/02/2012,00:46:25,   0.0,  0.0,  210,+11.3,  92.8,    1.4,   +8.6, +106.4,  +39.3,+1100.00,37
28/02/2012,00:46:43,   0.0,  0.0,  192,+11.2,  92.8,    1.4,   +8.7, +106.2,  +39.2,+1100.00,3D
28/02/2012,00:47:09,   0.0,  0.0,  189,+11.2,  92.8,    1.6,   +8.7, +106.6,  +39.1,+1100.00,4B
28/02/2012,00:47:27,   0.0,  0.0,  230,+11.2,  92.8,    1.7,   +8.6, +106.1,  +39.3,+1100.00,3B
28/02/2012,00:47:44,   0.0,  0.0,  242,+11.3,  92.8,    1.4,   +8.7, +106.5,  +39.2,+1100.00,3F
28/02/2012,00:48:02,   0.0,  0.0,  216,+11.2,  92.8,    1.5,   +8.6, +106.5,  +39.3,+1100.00,3B
28/02/2012,00:48:28,   0.0,  0.0,  227,+11.2,  92.8,    1.3,   +8.6, +106.6,  +39.4,+1100.00,45
28/02/2012,00:48:46,   0.0,  0.0,  246,+11.2,  92.9,    1.8,   +8.7, +106.6,  +39.2,+1100.00,4B
28/02/2012,00:49:03,   0.0,  0.0,  229,+11.2,  92.9,    1.5,   +8.6, +106.5,  +39.0,+1100.00,3F
28/02/2012,00:49:29,   0.0,  0.0,  227,+11.2,  92.9,    1.5,   +8.7, +106.6,  +39.4,+1100.00,4B
28/02/2012,00:49:47,   0.0,  0.0,  208,+11.2,  92.9,    1.5,   +8.6, +106.6,  +39.5,+1100.00,4A
28/02/2012,00:50:05,   0.0,  0.0,  224,+11.2,  92.9,    1.6,   +8.7, +106.7,  +39.2,+1100.00,3A
28/02/2012,00:50:23,   0.0,  0.0,  206,+11.2,  92.9,    1.7,   +8.8, +106.3,  +39.3,+1100.00,39
28/02/2012,00:50:49,   0.0,  0.0,  192,+11.2,  92.9,    1.4,   +8.6, +106.5,  +38.8,+1100.00,46
28/02/2012,00:51:07,   0.0,  0.0,  244,+11.2,  92.9,    1.6,   +8.7, +106.2,  +38.9,+1100.00,40
28/02/2012,00:51:25,   0.0,  0.0,  193,+11.3,  93.0,    1.6,   +8.7, +106.9,  +39.1,+1100.00,3C
28/02/2012,00:51:43,   0.0,  0.0,  197,+11.2,  93.0,    1.6,   +8.8, +106.3,  +39.1,+1100.00,3A
28/02/2012,00:52:09,   0.0,  0.0,  209,+11.2,  93.0,    1.6,   +8.6, +106.9,  +38.9,+1100.00,42
28/02/2012,00:52:27,   0.0,  0.0,  210,+11.2,  92.9,    1.6,   +8.6, +106.9,  +39.3,+1100.00,3D
28/02/2012,00:52:44,   0.0,  0.0,  205,+11.2,  93.0,    1.5,   +8.7, +106.5,  +39.3,+1100.00,34
28/02/2012,00:53:02,   0.0,  0.0,  214,+11.2,  93.0,    1.4,   +8.7, +106.5,  +39.2,+1100.00,2D
28/02/2012,00:53:28,   0.0,  0.0,  195,+11.2,  93.0,    1.3,   +8.7, +106.8,  +39.2,+1100.00,3F
28/02/2012,00:53:46,   0.0,  0.0,  201,+11.2,  93.0,    1.7,   +8.7, +106.5,  +39.1,+1100.00,33
28/02/2012,00:54:04,   0.0,  0.0,  216,+11.2,  92.9,    1.3,   +8.7, +106.6,  +39.2,+1100.00,3A
28/02/2012,00:54:29,   0.0,  0.0,  223,+11.2,  92.9,    1.6,   +8.7, +106.8,  +39.1,+1100.00,43
28/02/2012,00:54:47,   0.0,  0.0,  240,+11.2,  93.0,    1.4,   +8.9, +106.9,  +39.2,+1100.00,3C
28/02/2012,00:55:05,   0.0,  0.0,  204,+11.2,  92.9,    1.7,   +8.6, +106.6,  +39.2,+1100.00,3C
28/02/2012,00:55:23,   0.0,  0.0,  212,+11.2,  93.0,    1.6,   +8.6, +106.4,  +38.8,+1100.00,35
28/02/2012,00:55:49,   0.0,  0.0,  257,+11.2,  93.0,    1.5,   +8.7, +105.9,  +38.9,+1100.00,4B
28/02/2012,00:56:07,   0.0,  0.0,  211,+11.2,  93.0,    1.6,   +8.7, +106.4,  +38.9,+1100.00,39
28/02/2012,00:56:25,   0.0,  0.0,  201,+11.2,  93.1,    1.6,   +8.6, +106.4,  +39.1,+1100.00,31
28/02/2012,00:56:43,   0.0,  0.0,  201,+11.2,  93.1,    1.7,   +8.7, +106.6,  +39.0,+1100.00,34
28/02/2012,00:57:09,   0.0,  0.0,  205,+11.2,  93.0,    1.6,   +8.7, +106.4,  +38.8,+1100.00,3E
28/02/2012,00:57:27,   0.0,  0.0,  245,+11.2,  93.1,    1.7,   +8.7, +106.1,  +39.1,+1100.00,3B
28/02/2012,00:57:44,   0.0,  0.0,  228,+11.2,  93.1,    1.5,   +8.7, +106.3,  +39.1,+1100.00,3B
28/02/2012,00:58:02,   0.0,  0.0,  227,+11.2,  93.1,    1.4,   +8.7, +106.2,  +38.9,+1100.00,3A
28/02/2012,00:58:28,   0.0,  0.0,  227,+11.2,  93.1,    1.4,   +8.6, +107.0,  +39.3,+1100.00,3B
28/02/2012,00:58:46,   0.0,  0.0,  208,+11.2,  93.1,    1.7,   +8.7, +107.1,  +39.4,+1100.00,40
28/02/2012,00:59:04,   0.0,  0.0,  203,+11.2,  93.1,    1.6,   +8.7, +106.8,  +39.0,+1100.00,37
28/02/2012,00:59:29,   0.0,  0.0,  171,+11.2,  93.1,    1.6,   +8.7, +106.8,  +39.3,+1100.00,45
28/02/2012,00:59:47,   0.0,  0.0,  198,+11.2,  93.1,    1.5,   +8.7, +106.7,  +39.1,+1100.00,4A
28/02/2012,01:00:05,   0.0,  0.0,  223,+11.2,  93.1,    1.6,   +8.6, +106.7,  +38.9,+1100.00,33
28/02/2012,01:00:23,   0.0,  0.0,  208,+11.2,  93.1,    1.5,   +8.6, +106.6,  +39.4,+1100.00,30
28/02/2012,01:00:49,   0.0,  0.0,  231,+11.2,  93.2,    1.5,   +8.7, +107.2,  +39.4,+1100.00,33
28/02/2012,01:01:07,   0.0,  0.0,  214,+11.2,  93.1,    1.5,   +8.7, +106.7,  +39.7,+1100.00,35
28/02/2012,01:01:25,   0.0,  0.0,  179,+11.2,  93.1,    1.6,   +8.7, +106.4,  +39.4,+1100.00,3A
28/02/2012,01:01:43,   0.0,  0.0,  198,+11.2,  93.1,    1.7,   +8.7, +106.7,  +39.3,+1100.00,3E
28/02/2012,01:02:09,   0.0,  0.0,  158,+11.2,  93.1,    1.5,   +8.6, +106.6,  +39.2,+1100.00,38
28/02/2012,01:02:27,   0.0,  0.0,  230,+11.2,  93.1,    1.6,   +8.7, +106.5,  +39.1,+1100.00,2F
28/02/2012,01:02:44,   0.0,  0.0,  200,+11.2,  93.1,    1.5,   +8.6, +106.4,  +39.2,+1100.00,29
28/02/2012,01:03:02,   0.0,  0.0,  227,+11.2,  93.2,    1.5,   +8.7, +106.5,  +38.8,+1100.00,35
28/02/2012,01:03:28,   0.0,  0.0,  215,+11.2,  93.1,    1.6,   +8.6, +106.1,  +39.3,+1100.00,31
28/02/2012,01:03:46,   0.0,  0.0,  179,+11.2,  93.1,    1.7,   +8.7, +106.3,  +38.9,+1100.00,43
28/02/2012,01:04:04,   0.0,  0.0,  217,+11.2,  93.2,    1.4,   +8.6, +106.4,  +38.9,+1100.00,35
28/02/2012,01:04:29,   0.0,  0.0,  224,+11.2,  93.2,    1.6,   +8.8, +106.4,  +39.2,+1100.00,38
28/02/2012,01:04:47,   0.0,  0.0,  210,+11.2,  93.2,    1.4,   +8.8, +106.3,  +39.4,+1100.00,32
28/02/2012,01:05:05,   0.0,  0.0,  251,+11.2,  93.2,    1.6,   +8.6, +106.3,  +39.2,+1100.00,30
28/02/2012,01:05:23,   0.0,  0.0,  219,+11.2,  93.2,    1.5,   +8.6, +106.6,  +39.2,+1100.00,36
28/02/2012,01:05:49,   0.0,  0.0,  213,+11.2,  93.2,    1.4,   +8.6, +106.5,  +39.4,+1100.00,38
28/02/2012,01:06:07,   0.0,  0.0,  215,+11.2,  93.2,    1.5,   +8.7, +106.4,  +39.3,+1100.00,35
28/02/2012,01:06:25,   0.0,  0.0,  203,+11.2,  93.3,    1.5,   +8.7, +106.6,  +39.3,+1100.00,35
28/02/2012,01:06:43,   0.0,  0.0,  204,+11.2,  93.2,    1.7,   +8.7, +106.6,  +39.3,+1100.00,37
28/02/2012,01:07:09,   0.0,  0.0,  211,+11.2,  93.3,    1.5,   +8.6, +106.5,  +39.0,+1100.00,32
28/02/2012,01:07:27,   0.0,  0.0,  209,+11.2,  93.2,    1.6,   +8.7, +106.4,  +39.3,+1100.00,3C
28/02/2012,01:07:44,   0.0,  0.0,  219,+11.2,  93.3,    1.5,   +8.6, +106.8,  +39.2,+1100.00,3E
28/02/2012,01:08:02,   0.0,  0.0,  204,+11.2,  93.3,    1.6,   +8.7, +106.2,  +38.9,+1100.00,35
28/02/2012,01:08:28,   0.0,  0.0,  201,+11.2,  93.3,    1.7,   +8.6, +106.6,  +39.1,+1100.00,37
28/02/2012,01:08:46,   0.0,  0.0,  209,+11.2,  93.3,    1.4,   +8.6, +106.4,  +39.1,+1100.00,3A
28/02/2012,01:09:04,   0.0,  0.0,  201,+11.2,  93.3,    1.7,   +8.6, +105.8,  +39.1,+1100.00,33
28/02/2012,01:09:29,   0.0,  0.0,  212,+11.2,  93.3,    1.5,   +8.7, +106.3,  +39.0,+1100.00,36
28/02/2012,01:09:47,   0.0,  0.0,  223,+11.2,  93.3,    1.4,   +8.8, +106.0,  +39.0,+1100.00,35
28/02/2012,01:10:05,   0.0,  0.0,  210,+11.2,  93.3,    1.5,   +8.7, +106.6,  +39.1,+1100.00,2A
28/02/2012,01:10:23,   0.0,  0.0,  205,+11.2,  93.3,    1.5,   +8.6, +106.3,  +39.2,+1100.00,2B
28/02/2012,01:10:49,   0.0,  0.0,  201,+11.2,  93.3,    1.3,   +8.7, +106.3,  +39.1,+1100.00,2D
28/02/2012,01:11:07,   0.0,  0.0,  236,+11.2,  93.3,    1.5,   +8.7, +106.2,  +39.2,+1100.00,32
28/02/2012,01:11:25,   0.0,  0.0,  222,+11.2,  93.3,    1.5,   +8.7, +106.4,  +39.4,+1100.00,31
28/02/2012,01:11:43,   0.0,  0.0,  199,+11.2,  93.3,    1.7,   +8.7, +106.5,  +39.1,+1100.00,3E
28/02/2012,01:12:09,   0.0,  0.0,  193,+11.2,  93.3,    1.5,   +8.6, +106.6,  +39.4,+1100.00,3C
28/02/2012,01:12:27,   0.0,  0.0,  220,+11.2,  93.3,    1.6,   +8.8, +106.7,  +39.3,+1100.00,36
28/02/2012,01:12:44,   0.0,  0.0,  233,+11.2,  93.4,    1.5,   +8.7, +106.5,  +39.2,+1100.00,35
28/02/2012,01:13:02,   0.0,  0.0,  235,+11.2,  93.4,    1.4,   +8.7, +106.9,  +39.2,+1100.00,35
28/02/2012,01:13:28,   0.0,  0.0,  220,+11.2,  93.4,    1.7,   +8.7, +106.5,  +39.3,+1100.00,37
28/02/2012,01:13:46,   0.0,  0.0,  225,+11.2,  93.3,    1.7,   +8.7, +106.6,  +39.4,+1100.00,3D
28/02/2012,01:14:04,   0.0,  0.0,  218,+11.2,  93.3,    1.4,   +8.8, +106.5,  +39.3,+1100.00,36
28/02/2012,01:14:29,   0.0,  0.0,  220,+11.2,  93.3,    1.6,   +8.6, +106.4,  +39.1,+1100.00,33
28/02/2012,01:14:47,   0.0,  0.0,  228,+11.2,  93.4,    1.5,   +8.8, +106.3,  +39.3,+1100.00,3E
28/02/2012,01:15:05,   0.0,  0.0,  223,+11.2,  93.4,    1.7,   +8.6, +106.9,  +39.3,+1100.00,3A
28/02/2012,01:15:23,   0.0,  0.0,  207,+11.2,  93.3,    1.6,   +8.7, +105.9,  +39.0,+1100.00,37
28/02/2012,01:15:49,   0.0,  0.0,  205,+11.2,  93.4,    1.5,   +8.6, +106.6,  +39.2,+1100.00,3C
28/02/2012,01:16:07,   0.0,  0.0,  259,+11.2,  93.4,    1.6,   +8.7, +106.7,  +39.1,+1100.00,42
28/02/2012,01:16:25,   0.0,  0.0,  244,+11.2,  93.4,    1.5,   +8.7, +106.7,  +39.3,+1100.00,3D
28/02/2012,01:16:43,   0.0,  0.0,  222,+11.2,  93.4,    1.7,   +8.8, +106.4,  +39.2,+1100.00,38
28/02/2012,01:17:09,   0.0,  0.0,  211,+11.2,  93.4,    1.6,   +8.7, +106.2,  +39.3,+1100.00,36
28/02/2012,01:17:27,   0.0,  0.0,  226,+11.2,  93.4,    1.5,   +8.6, +106.8,  +39.2,+1100.00,3F
28/02/2012,01:17:44,   0.0,  0.0,  226,+11.2,  93.4,    1.5,   +8.7, +106.5,  +39.3,+1100.00,3D
28/02/2012,01:18:02,   0.0,  0.0,  231,+11.2,  93.4,    1.5,   +8.7, +106.8,  +39.2,+1100.00,36
28/02/2012,01:18:28,   0.0,  0.0,  214,+11.2,  93.4,    1.6,   +8.7, +106.7,  +39.4,+1100.00,41
28/02/2012,01:18:46,   0.0,  0.0,  229,+11.2,  93.4,    1.7,   +8.8, +106.5,  +39.3,+1100.00,46
28/02/2012,01:19:03,   0.0,  0.0,  210,+11.2,  93.4,    1.4,   +8.7, +106.2,  +39.0,+1100.00,2C
28/02/2012,01:19:29,   0.0,  0.0,  198,+11.2,  93.4,    1.6,   +8.6, +106.1,  +38.9,+1100.00,4B
28/02/2012,01:19:47,   0.0,  0.0,  210,+11.2,  93.4,    1.4,   +8.7, +105.8,  +39.2,+1100.00,3B
28/02/2012,01:20:05,   0.0,  0.0,  218,+11.2,  93.5,    1.7,   +8.5, +106.4,  +38.7,+1100.00,38
28/02/2012,01:20:23,   0.0,  0.0,  203,+11.2,  93.4,    1.5,   +8.7, +106.1,  +39.0,+1100.00,28
28/02/2012,01:20:49,   0.0,  0.0,  238,+11.2,  93.5,    1.4,   +8.6, +106.4,  +39.2,+1100.00,3C
28/02/2012,01:21:07,   0.0,  0.0,  202,+11.2,  93.5,    1.5,   +8.6, +106.4,  +39.1,+1100.00,2E
28/02/2012,01:21:25,   0.0,  0.0,  218,+11.2,  93.5,    1.6,   +8.7, +106.6,  +39.0,+1100.00,38
28/02/2012,01:21:43,   0.0,  0.0,  198,+11.2,  93.5,    1.8,   +8.7, +106.2,  +39.2,+1100.00,3F
28/02/2012,01:22:09,   0.0,  0.0,  210,+11.2,  93.5,    1.4,   +8.7, +106.5,  +39.1,+1100.00,31